#�ϑ�����,���ϕ���,���ϕ���,�ő啗��,�ő啗����������,�ő�u�ԕ���,�ő�u�ԕ�����������
#(�N����),(m/s)   ,(16����),(m/s)   ,(16����)        ,(m/s)       ,(16����)            
2016/12/10 0:01,1.1,11,1.3,12,1.1,10
2016/12/10 0:02,0.9,12,1.1,12,0.3,2
2016/12/10 0:03,0.8,12,0.9,12,0.8,16
2016/12/10 0:04,0.7,12,0.7,12,1.3,12
2016/12/10 0:05,0.7,12,0.7,11,1.4,15
2016/12/10 0:06,0.6,13,0.7,11,1.1,15
2016/12/10 0:07,0.6,13,0.6,11,0.6,1
2016/12/10 0:08,0.5,14,0.6,11,1.5,1
2016/12/10 0:09,0.6,14,0.6,11,2.2,16
2016/12/10 0:10,0.6,15,0.6,11,2.7,16
2016/12/10 0:11,0.8,16,0.8,11,2.7,16
2016/12/10 0:12,0.9,16,0.9,12,1.6,16
2016/12/10 0:13,1,16,1,16,2,15
2016/12/10 0:14,1,16,1,16,1.9,15
2016/12/10 0:15,1.1,16,1.1,16,1.8,12
2016/12/10 0:16,1.2,15,1.2,15,1.9,12
2016/12/10 0:17,1.3,15,1.3,15,1.8,12
2016/12/10 0:18,1.4,15,1.4,15,1.6,14
2016/12/10 0:19,1.3,14,1.4,15,2.1,16
2016/12/10 0:20,1.3,14,1.4,15,2.1,15
2016/12/10 0:21,1.3,14,1.3,15,2.2,16
2016/12/10 0:22,1.4,14,1.4,15,2.7,16
2016/12/10 0:23,1.4,14,1.4,15,2.4,16
2016/12/10 0:24,1.5,14,1.5,14,2.7,16
2016/12/10 0:25,1.6,15,1.6,14,3.8,16
2016/12/10 0:26,1.8,15,1.8,15,3.5,16
2016/12/10 0:27,1.9,16,1.9,15,3.8,1
2016/12/10 0:28,2.1,16,2.1,16,3.8,1
2016/12/10 0:29,2.3,16,2.3,16,3.9,16
2016/12/10 0:30,2.3,16,2.3,16,3.2,16
2016/12/10 0:31,2.3,16,2.3,16,2.5,16
2016/12/10 0:32,2.3,16,2.4,16,2.2,16
2016/12/10 0:33,2.3,16,2.4,16,2.9,16
2016/12/10 0:34,2.4,16,2.4,16,4.4,1
2016/12/10 0:35,2.4,16,2.5,16,4.3,15
2016/12/10 0:36,2.4,16,2.4,16,3.1,15
2016/12/10 0:37,2.2,16,2.3,16,2,16
2016/12/10 0:38,1.9,16,2.2,16,1,14
2016/12/10 0:39,1.7,16,1.9,16,0.1,7
2016/12/10 0:40,1.5,16,1.7,16,0.5,4
2016/12/10 0:41,1.3,16,1.5,16,1.4,7
2016/12/10 0:42,1.2,1,1.3,16,0.9,6
2016/12/10 0:43,1.2,2,1.2,16,1.4,5
2016/12/10 0:44,0.9,3,1.2,16,1.3,6
2016/12/10 0:45,0.8,4,0.9,16,2.4,10
2016/12/10 0:46,0.8,6,0.8,16,3.2,9
2016/12/10 0:47,0.8,7,0.8,16,1.4,12
2016/12/10 0:48,0.8,8,0.8,16,1.6,12
2016/12/10 0:49,0.8,8,0.8,16,0.8,16
2016/12/10 0:50,0.8,9,0.8,16,0.3,2
2016/12/10 0:51,0.8,10,0.8,16,0.9,16
2016/12/10 0:52,0.8,11,0.8,1,1.6,16
2016/12/10 0:53,0.8,12,0.8,2,1.8,15
2016/12/10 0:54,0.9,12,0.9,3,3.8,9
2016/12/10 0:55,0.8,12,0.9,12,1.9,11
2016/12/10 0:56,0.7,12,0.8,12,1.8,10
2016/12/10 0:57,0.8,12,0.8,12,3.7,8
2016/12/10 0:58,0.9,11,0.9,12,3.5,8
2016/12/10 0:59,0.9,11,0.9,12,1.3,14
2016/12/10 1:00,1.1,11,1.1,11,1.6,11
2016/12/10 1:01,1.1,11,1.1,11,1.3,11
2016/12/10 1:02,1.2,11,1.2,11,3.9,16
2016/12/10 1:03,1.3,11,1.3,11,2.7,15
2016/12/10 1:04,1.3,12,1.3,11,2.7,15
2016/12/10 1:05,1.4,12,1.4,12,2.4,16
2016/12/10 1:06,1.5,13,1.5,13,2.5,16
2016/12/10 1:07,1.5,13,1.5,13,2,14
2016/12/10 1:08,1.5,14,1.5,13,3,15
2016/12/10 1:09,1.7,14,1.7,14,3.2,15
2016/12/10 1:10,1.8,15,1.8,14,4.8,1
2016/12/10 1:11,1.9,15,1.9,15,2.5,16
2016/12/10 1:12,2,15,2,15,4.2,15
2016/12/10 1:13,1.9,15,2,15,2.2,9
2016/12/10 1:14,2,15,2,15,4.3,14
2016/12/10 1:15,2.1,14,2.1,14,3.2,13
2016/12/10 1:16,2,14,2.1,14,2.5,11
2016/12/10 1:17,1.8,14,2,14,1,16
2016/12/10 1:18,1.7,15,1.8,14,1.8,1
2016/12/10 1:19,1.6,15,1.7,14,1.9,15
2016/12/10 1:20,1.5,14,1.6,14,1.5,13
2016/12/10 1:21,1.4,14,1.4,14,1.1,12
2016/12/10 1:22,1.2,14,1.4,14,2.4,12
2016/12/10 1:23,1.4,14,1.4,14,3.6,16
2016/12/10 1:24,1.3,14,1.4,14,2.9,16
2016/12/10 1:25,1.2,15,1.3,14,3,16
2016/12/10 1:26,1.2,14,1.2,14,1.8,12
2016/12/10 1:27,1.3,14,1.3,14,2.4,13
2016/12/10 1:28,1.4,14,1.4,15,4.2,16
2016/12/10 1:29,1.3,14,1.3,14,1.4,14
2016/12/10 1:30,1.4,14,1.4,14,3.2,14
2016/12/10 1:31,1.6,15,1.6,14,4.9,16
2016/12/10 1:32,1.8,15,1.8,15,4.7,15
2016/12/10 1:33,1.8,14,1.8,15,3.5,11
2016/12/10 1:34,1.9,14,1.9,14,4.1,11
2016/12/10 1:35,1.9,13,1.9,14,2.9,10
2016/12/10 1:36,1.9,13,1.9,14,2.4,12
2016/12/10 1:37,1.9,13,1.9,14,2.5,13
2016/12/10 1:38,1.8,13,1.9,14,1.3,14
2016/12/10 1:39,1.9,13,1.9,14,2.6,2
2016/12/10 1:40,2,13,2,13,5.4,16
2016/12/10 1:41,2,13,2,13,3.9,16
2016/12/10 1:42,2,14,2,13,4.1,1
2016/12/10 1:43,2.1,14,2.1,14,5.4,2
2016/12/10 1:44,2.3,15,2.3,15,7.2,16
2016/12/10 1:45,2.4,15,2.4,15,5.5,1
2016/12/10 1:46,2.7,16,2.7,16,7.8,15
2016/12/10 1:47,2.8,16,2.8,16,5.4,16
2016/12/10 1:48,2.9,16,2.9,16,2.9,4
2016/12/10 1:49,3.1,16,3.1,16,6.3,1
2016/12/10 1:50,3.3,16,3.3,16,6.5,16
2016/12/10 1:51,3.4,16,3.4,16,7.4,14
2016/12/10 1:52,3.5,16,3.5,16,5.5,12
2016/12/10 1:53,3.4,15,3.5,16,3.5,11
2016/12/10 1:54,3.1,15,3.4,16,2.2,4
2016/12/10 1:55,2.9,15,3.1,16,2.6,3
2016/12/10 1:56,2.6,15,2.9,16,1,15
2016/12/10 1:57,2.4,14,2.5,16,2.9,8
2016/12/10 1:58,2.4,15,2.4,16,1.1,5
2016/12/10 1:59,2.1,14,2.3,16,2.2,5
2016/12/10 2:00,1.7,8,2.1,16,1.9,6
2016/12/10 2:01,1.4,7,1.7,16,1.9,6
2016/12/10 2:02,1.1,6,1.3,16,1.4,8
2016/12/10 2:03,1,6,1,15,1.4,8
2016/12/10 2:04,0.9,6,1,15,0.9,7
2016/12/10 2:05,0.8,6,0.8,15,1.8,5
2016/12/10 2:06,0.9,6,0.9,15,2,2
2016/12/10 2:07,0.8,5,0.9,14,1.8,1
2016/12/10 2:08,0.9,5,0.9,15,2.2,1
2016/12/10 2:09,0.9,4,0.9,14,1.6,1
2016/12/10 2:10,0.9,4,0.9,7,1.4,3
2016/12/10 2:11,0.9,4,0.9,7,2.1,8
2016/12/10 2:12,0.9,4,0.9,6,1.5,8
2016/12/10 2:13,1,4,1,6,5.6,9
2016/12/10 2:14,1.1,4,1.1,4,5.6,10
2016/12/10 2:15,1.2,4,1.2,4,3.2,9
2016/12/10 2:16,1.2,5,1.2,4,2.7,1
2016/12/10 2:17,1.3,5,1.3,5,3.2,16
2016/12/10 2:18,1.2,6,1.3,5,1.8,15
2016/12/10 2:19,1.3,8,1.3,5,3,8
2016/12/10 2:20,1.3,8,1.3,5,2.2,6
2016/12/10 2:21,1.4,8,1.4,8,2.5,7
2016/12/10 2:22,1.5,7,1.5,7,2.6,8
2016/12/10 2:23,1.4,7,1.5,7,1.8,7
2016/12/10 2:24,1.2,7,1.3,7,1,8
2016/12/10 2:25,1.2,7,1.2,7,2.2,8
2016/12/10 2:26,1.1,7,1.1,7,1,12
2016/12/10 2:27,1.1,7,1.1,7,3.7,16
2016/12/10 2:28,1.3,6,1.3,7,3.8,16
2016/12/10 2:29,1.2,5,1.3,7,2.4,15
2016/12/10 2:30,1.3,4,1.3,7,3.5,16
2016/12/10 2:31,1.3,3,1.3,7,1.8,3
2016/12/10 2:32,1.2,3,1.3,7,1.8,3
2016/12/10 2:33,1.3,2,1.3,7,1.8,3
2016/12/10 2:34,1.4,1,1.4,2,3.1,12
2016/12/10 2:35,1.5,1,1.5,1,3.6,11
2016/12/10 2:36,1.7,16,1.7,16,3.9,9
2016/12/10 2:37,1.7,13,1.7,16,3,9
2016/12/10 2:38,1.5,11,1.6,16,1.8,12
2016/12/10 2:39,1.4,10,1.5,16,1.8,12
2016/12/10 2:40,1.4,9,1.4,16,1.9,1
2016/12/10 2:41,1.4,12,1.4,16,2.4,2
2016/12/10 2:42,1.4,14,1.5,16,2.1,1
2016/12/10 2:43,1.4,16,1.5,16,1.4,4
2016/12/10 2:44,1.2,16,1.4,16,0.3,11
2016/12/10 2:45,1.1,16,1.2,16,0.3,9
2016/12/10 2:46,0.9,1,1,16,0.4,6
2016/12/10 2:47,0.7,1,0.8,13,0.8,15
2016/12/10 2:48,0.7,1,0.7,11,0.9,15
2016/12/10 2:49,0.7,16,0.7,14,3.1,15
2016/12/10 2:50,0.7,16,0.8,14,2,14
2016/12/10 2:51,0.6,15,0.7,14,1.1,14
2016/12/10 2:52,0.7,15,0.7,14,4.1,16
2016/12/10 2:53,0.8,14,0.8,16,3.8,16
2016/12/10 2:54,0.8,15,0.8,16,2.4,10
2016/12/10 2:55,1.1,15,1.1,15,4.7,8
2016/12/10 2:56,1.3,15,1.3,14,3.9,7
2016/12/10 2:57,1.4,15,1.4,15,3.2,8
2016/12/10 2:58,1.4,14,1.4,15,0.9,12
2016/12/10 2:59,1.3,13,1.4,15,2.1,15
2016/12/10 3:00,1.4,14,1.4,15,2.9,16
2016/12/10 3:01,1.5,14,1.5,14,3.2,16
2016/12/10 3:02,1.6,14,1.6,14,3.9,16
2016/12/10 3:03,1.5,14,1.6,14,1.8,15
2016/12/10 3:04,1.5,13,1.5,14,1.3,7
2016/12/10 3:05,1.4,13,1.5,14,2,8
2016/12/10 3:06,1.2,14,1.4,14,1,9
2016/12/10 3:07,1.2,14,1.2,14,2.1,12
2016/12/10 3:08,1.4,13,1.4,14,1.9,12
2016/12/10 3:09,1.4,12,1.4,14,2.5,8
2016/12/10 3:10,1.3,11,1.4,14,2.2,8
2016/12/10 3:11,1.2,11,1.3,14,2.1,16
2016/12/10 3:12,1.1,11,1.2,14,2.6,16
2016/12/10 3:13,1.1,11,1.1,14,2.5,16
2016/12/10 3:14,1.1,12,1.1,13,1.4,13
2016/12/10 3:15,1,13,1.1,13,0.9,11
2016/12/10 3:16,1.3,13,1.3,13,4.1,15
2016/12/10 3:17,1.3,14,1.3,13,3.1,15
2016/12/10 3:18,1.3,14,1.3,13,2.6,15
2016/12/10 3:19,1.3,15,1.3,12,1.9,14
2016/12/10 3:20,1.2,15,1.2,11,1.8,16
2016/12/10 3:21,1.3,15,1.3,13,2.5,13
2016/12/10 3:22,1.3,15,1.3,13,2,13
2016/12/10 3:23,1.3,15,1.3,13,1.3,16
2016/12/10 3:24,1.4,15,1.4,15,3.1,1
2016/12/10 3:25,1.6,15,1.6,15,3.2,16
2016/12/10 3:26,1.4,16,1.6,15,2,16
2016/12/10 3:27,1.3,16,1.4,15,1.5,15
2016/12/10 3:28,1.1,16,1.2,15,1,15
2016/12/10 3:29,1.1,16,1.1,15,1.8,1
2016/12/10 3:30,1.3,16,1.3,15,4.1,16
2016/12/10 3:31,1.5,16,1.5,15,8.4,16
2016/12/10 3:32,1.6,1,1.6,15,3.2,1
2016/12/10 3:33,1.7,1,1.7,1,5.4,16
2016/12/10 3:34,2.1,16,2.1,16,9.1,14
2016/12/10 3:35,2.2,16,2.2,16,6.8,16
2016/12/10 3:36,2.6,16,2.6,16,7.1,1
2016/12/10 3:37,2.9,16,2.9,16,5,16
2016/12/10 3:38,3.3,16,3.3,16,6.4,15
2016/12/10 3:39,3.6,16,3.6,16,4.9,16
2016/12/10 3:40,3.6,16,3.6,16,4.1,15
2016/12/10 3:41,3.4,16,3.5,16,4.5,15
2016/12/10 3:42,3.4,16,3.5,16,3.5,16
2016/12/10 3:43,3.3,16,3.4,16,1.4,2
2016/12/10 3:44,2.9,16,3.3,16,2,3
2016/12/10 3:45,2.6,1,2.9,16,1.9,4
2016/12/10 3:46,2.3,1,2.6,16,1.6,4
2016/12/10 3:47,2.1,1,2.3,16,2.1,1
2016/12/10 3:48,1.7,1,2.1,16,1.6,1
2016/12/10 3:49,1.4,1,1.7,16,0.6,15
2016/12/10 3:50,1.2,1,1.4,16,0.6,13
2016/12/10 3:51,0.9,1,1.2,16,0.1,13
2016/12/10 3:52,0.8,1,0.9,16,0.3,13
2016/12/10 3:53,0.7,16,0.8,16,0.5,10
2016/12/10 3:54,0.6,15,0.7,16,1.8,14
2016/12/10 3:55,0.6,14,0.6,1,1.6,13
2016/12/10 3:56,0.6,13,0.6,1,1.3,10
2016/12/10 3:57,0.5,13,0.6,1,1.1,12
2016/12/10 3:58,0.5,13,0.5,1,1.6,8
2016/12/10 3:59,0.7,12,0.7,1,3.7,6
2016/12/10 4:00,0.8,12,0.8,1,3.1,15
2016/12/10 4:01,0.9,12,0.9,1,1.8,15
2016/12/10 4:02,1,13,1,12,2.1,2
2016/12/10 4:03,1,14,1,12,1.6,2
2016/12/10 4:04,1,14,1,12,1,12
2016/12/10 4:05,0.9,13,1,12,1,8
2016/12/10 4:06,0.9,13,0.9,12,1.5,13
2016/12/10 4:07,0.9,11,0.9,12,2.2,12
2016/12/10 4:08,0.9,10,0.9,12,0.6,10
2016/12/10 4:09,0.7,1,0.9,12,1.1,4
2016/12/10 4:10,0.8,1,0.8,12,2.7,16
2016/12/10 4:11,0.9,16,0.9,12,2.2,15
2016/12/10 4:12,0.9,15,0.9,13,1.4,16
2016/12/10 4:13,0.9,14,0.9,14,1.8,15
2016/12/10 4:14,1,15,1,14,2.4,15
2016/12/10 4:15,1.1,15,1.1,15,2.4,12
2016/12/10 4:16,1.2,15,1.2,15,1.9,13
2016/12/10 4:17,1.1,15,1.2,15,1.1,16
2016/12/10 4:18,1.2,15,1.2,15,1.8,16
2016/12/10 4:19,1.2,15,1.2,15,1.8,16
2016/12/10 4:20,1.2,15,1.2,15,3.5,1
2016/12/10 4:21,1.3,15,1.3,15,3.8,1
2016/12/10 4:22,1.5,15,1.5,15,3.3,16
2016/12/10 4:23,1.6,15,1.6,15,4.1,15
2016/12/10 4:24,1.7,15,1.7,15,3.3,15
2016/12/10 4:25,1.8,16,1.8,15,3.1,16
2016/12/10 4:26,1.9,16,1.9,16,3.6,1
2016/12/10 4:27,2.1,16,2.1,16,3.6,1
2016/12/10 4:28,2.2,16,2.2,16,3.9,16
2016/12/10 4:29,2.3,16,2.3,16,3.5,15
2016/12/10 4:30,2.4,16,2.4,16,3.6,16
2016/12/10 4:31,2.4,16,2.4,16,3.6,1
2016/12/10 4:32,2.3,16,2.4,16,3.3,1
2016/12/10 4:33,2.3,16,2.3,16,4.1,14
2016/12/10 4:34,2.4,16,2.4,16,6.3,1
2016/12/10 4:35,2.6,16,2.6,16,6.9,16
2016/12/10 4:36,2.7,16,2.7,16,4.4,1
2016/12/10 4:37,2.7,16,2.7,16,4.4,1
2016/12/10 4:38,2.8,16,2.8,16,6.9,14
2016/12/10 4:39,2.8,16,2.9,16,4.5,16
2016/12/10 4:40,2.7,16,2.9,16,2.7,1
2016/12/10 4:41,2.7,16,2.8,16,4.2,15
2016/12/10 4:42,2.8,16,2.8,16,5.1,15
2016/12/10 4:43,2.8,16,2.8,16,4.8,15
2016/12/10 4:44,2.7,15,2.8,16,3,14
2016/12/10 4:45,2.4,15,2.7,16,2.5,16
2016/12/10 4:46,2.3,15,2.4,16,3.9,15
2016/12/10 4:47,2.3,15,2.3,16,4.4,16
2016/12/10 4:48,2.2,15,2.3,16,3.5,14
2016/12/10 4:49,2.2,15,2.2,16,3.1,14
2016/12/10 4:50,2.2,15,2.2,16,3,16
2016/12/10 4:51,2.3,15,2.3,16,5.7,16
2016/12/10 4:52,2.3,15,2.3,16,5.2,16
2016/12/10 4:53,2.3,15,2.3,16,5,16
2016/12/10 4:54,2.4,15,2.4,15,4.8,16
2016/12/10 4:55,2.6,15,2.6,15,3.8,14
2016/12/10 4:56,2.6,15,2.6,15,3.8,14
2016/12/10 4:57,2.6,15,2.6,15,4.7,15
2016/12/10 4:58,2.7,15,2.7,15,4.8,15
2016/12/10 4:59,2.7,15,2.7,15,3.6,15
2016/12/10 5:00,2.7,15,2.7,15,3.1,15
2016/12/10 5:01,2.7,15,2.8,15,4.1,16
2016/12/10 5:02,2.6,15,2.7,15,4.5,15
2016/12/10 5:03,2.5,15,2.6,15,3.5,16
2016/12/10 5:04,2.4,15,2.5,15,3.7,15
2016/12/10 5:05,2.4,15,2.4,15,3.5,14
2016/12/10 5:06,2.5,15,2.5,15,4.5,15
2016/12/10 5:07,2.5,15,2.5,15,3.7,16
2016/12/10 5:08,2.4,15,2.5,15,3.8,16
2016/12/10 5:09,2.4,16,2.4,15,4.3,16
2016/12/10 5:10,2.6,15,2.6,15,5.1,15
2016/12/10 5:11,2.6,15,2.6,15,4.8,15
2016/12/10 5:12,2.8,15,2.8,15,7.1,14
2016/12/10 5:13,3,15,3,15,6.3,16
2016/12/10 5:14,3.3,15,3.3,15,5.2,15
2016/12/10 5:15,3.3,15,3.3,15,6.3,16
2016/12/10 5:16,3.4,15,3.4,15,5.7,16
2016/12/10 5:17,3.5,15,3.5,15,5.7,15
2016/12/10 5:18,3.7,15,3.7,15,5.6,16
2016/12/10 5:19,3.8,15,3.8,15,5.4,1
2016/12/10 5:20,3.7,15,3.8,15,4.3,1
2016/12/10 5:21,3.6,16,3.7,15,2.7,15
2016/12/10 5:22,3.4,16,3.6,15,3.8,15
2016/12/10 5:23,3.2,16,3.4,15,3,15
2016/12/10 5:24,2.9,16,3.2,15,2.2,15
2016/12/10 5:25,2.9,16,2.9,15,3.8,16
2016/12/10 5:26,2.7,16,2.9,15,5.4,1
2016/12/10 5:27,2.6,16,2.7,15,4.3,16
2016/12/10 5:28,2.4,16,2.5,15,4.2,15
2016/12/10 5:29,2.3,16,2.4,15,4.7,15
2016/12/10 5:30,2.4,15,2.4,15,4.7,16
2016/12/10 5:31,2.5,15,2.5,16,5.1,1
2016/12/10 5:32,2.6,16,2.6,16,6.3,16
2016/12/10 5:33,2.7,16,2.7,16,4.9,16
2016/12/10 5:34,2.7,16,2.7,16,4.2,2
2016/12/10 5:35,2.8,16,2.8,16,4.7,2
2016/12/10 5:36,2.8,16,2.9,16,3.6,16
2016/12/10 5:37,2.8,16,2.8,16,3.2,2
2016/12/10 5:38,2.6,16,2.7,16,4.4,3
2016/12/10 5:39,2.8,16,2.8,16,6.9,2
2016/12/10 5:40,2.7,16,2.8,16,5.2,15
2016/12/10 5:41,2.6,1,2.7,16,4.9,16
2016/12/10 5:42,2.5,1,2.6,16,4.9,16
2016/12/10 5:43,2.6,1,2.6,16,8.5,16
2016/12/10 5:44,3.1,16,3.1,16,10.3,16
2016/12/10 5:45,3,16,3.1,16,7.4,16
2016/12/10 5:46,3,1,3,16,3.5,4
2016/12/10 5:47,3,1,3,16,3.5,2
2016/12/10 5:48,3.1,1,3.1,16,2.5,3
2016/12/10 5:49,2.8,2,3,16,2,6
2016/12/10 5:50,2.7,2,2.8,16,1.9,3
2016/12/10 5:51,2.6,3,2.7,16,2,4
2016/12/10 5:52,2.5,3,2.6,16,2.2,3
2016/12/10 5:53,2.3,4,2.5,16,3.1,6
2016/12/10 5:54,1.7,4,2.3,16,2.1,6
2016/12/10 5:55,1.5,4,1.7,1,1.1,1
2016/12/10 5:56,1.4,4,1.5,1,2.4,15
2016/12/10 5:57,1.3,4,1.4,1,2.1,15
2016/12/10 5:58,1.2,4,1.3,1,0.9,3
2016/12/10 5:59,1.2,4,1.2,2,1.5,5
2016/12/10 6:00,1.1,4,1.2,2,1.1,4
2016/12/10 6:01,1,3,1.1,3,1.5,13
2016/12/10 6:02,1,2,1.1,3,1.9,13
2016/12/10 6:03,0.9,2,1,4,2.4,2
2016/12/10 6:04,0.9,1,0.9,4,2.6,2
2016/12/10 6:05,1,1,1,4,5,1
2016/12/10 6:06,1.1,1,1.1,4,4.3,1
2016/12/10 6:07,1.3,1,1.3,4,6.9,1
2016/12/10 6:08,1.8,1,1.8,1,8.1,16
2016/12/10 6:09,2.1,16,2.1,16,5.8,15
2016/12/10 6:10,2.5,16,2.5,16,7.5,1
2016/12/10 6:11,2.7,1,2.7,1,6.1,2
2016/12/10 6:12,3.1,1,3.1,1,9.4,16
2016/12/10 6:13,3.4,1,3.4,1,6.4,2
2016/12/10 6:14,3.6,1,3.6,1,6.2,1
2016/12/10 6:15,3.9,16,3.9,16,5.6,15
2016/12/10 6:16,4,16,4,16,5.7,1
2016/12/10 6:17,4.2,16,4.2,16,6.8,15
2016/12/10 6:18,4,16,4.2,16,7,1
2016/12/10 6:19,4,16,4,16,6.1,16
2016/12/10 6:20,3.9,16,4,16,4.7,2
2016/12/10 6:21,3.8,16,3.9,16,3.9,2
2016/12/10 6:22,3.6,16,3.8,16,4.4,1
2016/12/10 6:23,3.4,16,3.6,16,4.7,1
2016/12/10 6:24,3.4,16,3.5,16,6.1,2
2016/12/10 6:25,3.5,16,3.5,16,7,16
2016/12/10 6:26,3.4,16,3.6,16,6.7,16
2016/12/10 6:27,3.2,16,3.4,16,3.9,1
2016/12/10 6:28,3.3,16,3.3,16,7,16
2016/12/10 6:29,3.3,16,3.3,16,6.3,16
2016/12/10 6:30,3.3,16,3.3,16,3.7,15
2016/12/10 6:31,3.5,16,3.5,16,6.9,16
2016/12/10 6:32,3.7,16,3.7,16,8.5,16
2016/12/10 6:33,3.9,16,3.9,16,6.8,16
2016/12/10 6:34,3.9,16,3.9,16,5.7,16
2016/12/10 6:35,4,16,4,16,9.5,16
2016/12/10 6:36,3.9,16,4,16,5.7,1
2016/12/10 6:37,4,16,4,16,4.3,2
2016/12/10 6:38,3.7,16,3.9,16,3.8,16
2016/12/10 6:39,3.7,16,3.7,16,5.2,15
2016/12/10 6:40,3.7,16,3.7,16,4.4,15
2016/12/10 6:41,3.6,16,3.7,16,4.2,16
2016/12/10 6:42,3.3,16,3.5,16,4.2,16
2016/12/10 6:43,3,16,3.2,16,3.7,15
2016/12/10 6:44,3.1,16,3.1,16,6.5,2
2016/12/10 6:45,2.9,16,3.1,16,5.5,2
2016/12/10 6:46,2.9,16,2.9,16,5,1
2016/12/10 6:47,3,16,3,16,4.8,2
2016/12/10 6:48,3.1,16,3.1,16,5.6,16
2016/12/10 6:49,3.2,16,3.2,16,5.8,1
2016/12/10 6:50,3.1,16,3.2,16,4.8,16
2016/12/10 6:51,3.1,16,3.2,16,5,1
2016/12/10 6:52,3.1,16,3.1,16,3.3,15
2016/12/10 6:53,3.2,1,3.2,16,6,1
2016/12/10 6:54,3.2,1,3.2,16,6,16
2016/12/10 6:55,3,1,3.1,16,3.8,1
2016/12/10 6:56,3,1,3.1,16,5.1,1
2016/12/10 6:57,3,1,3,16,3.9,1
2016/12/10 6:58,2.9,1,3,16,4.8,16
2016/12/10 6:59,2.8,1,2.9,16,6,1
2016/12/10 7:00,2.8,1,2.8,16,5.6,2
2016/12/10 7:01,2.8,1,2.8,1,6.7,1
2016/12/10 7:02,3.1,1,3.1,1,6.9,16
2016/12/10 7:03,3.3,1,3.3,1,7.1,1
2016/12/10 7:04,3.5,1,3.5,1,7.9,15
2016/12/10 7:05,3.6,1,3.6,1,5.6,2
2016/12/10 7:06,3.6,1,3.6,1,5.6,1
2016/12/10 7:07,3.7,1,3.8,1,5.8,2
2016/12/10 7:08,3.7,1,3.8,1,5.6,16
2016/12/10 7:09,3.8,1,3.8,1,6.8,15
2016/12/10 7:10,3.9,1,4,1,6.9,16
2016/12/10 7:11,4,1,4,1,8.5,15
2016/12/10 7:12,3.9,1,4,1,7.6,2
2016/12/10 7:13,3.8,1,3.9,1,8.1,16
2016/12/10 7:14,3.6,1,3.8,1,6,1
2016/12/10 7:15,3.5,1,3.6,1,4.9,16
2016/12/10 7:16,3.5,1,3.5,1,6.2,16
2016/12/10 7:17,3.7,16,3.7,1,8.1,16
2016/12/10 7:18,3.9,16,3.9,1,7.6,1
2016/12/10 7:19,4,16,4,1,8.7,16
2016/12/10 7:20,4.1,16,4.1,16,7.5,15
2016/12/10 7:21,4.2,16,4.2,16,10.6,16
2016/12/10 7:22,4.3,16,4.3,16,6.8,15
2016/12/10 7:23,4.3,16,4.3,16,7.1,16
2016/12/10 7:24,4.4,16,4.4,16,9.2,1
2016/12/10 7:25,4.7,16,4.7,16,7.7,16
2016/12/10 7:26,4.8,16,4.8,16,6,15
2016/12/10 7:27,4.9,16,4.9,16,8.6,15
2016/12/10 7:28,4.6,16,4.9,16,7.1,1
2016/12/10 7:29,4.7,16,4.7,16,7.6,16
2016/12/10 7:30,4.7,16,4.7,16,7.6,16
2016/12/10 7:31,4.6,16,4.8,16,8.4,2
2016/12/10 7:32,4.7,16,4.7,16,7.9,1
2016/12/10 7:33,4.7,16,4.7,16,7.2,15
2016/12/10 7:34,4.7,16,4.7,16,6.7,16
2016/12/10 7:35,4.5,16,4.6,16,7.7,2
2016/12/10 7:36,4.5,16,4.6,16,7.7,15
2016/12/10 7:37,4.3,16,4.5,16,5.4,1
2016/12/10 7:38,4.4,1,4.4,16,7.8,16
2016/12/10 7:39,4.5,1,4.5,16,8.6,16
2016/12/10 7:40,4.5,1,4.5,16,6.7,2
2016/12/10 7:41,4.3,1,4.4,16,6.8,1
2016/12/10 7:42,4.2,1,4.3,16,6.7,1
2016/12/10 7:43,4,1,4.2,16,4.4,14
2016/12/10 7:44,3.8,1,4,16,5.1,16
2016/12/10 7:45,3.8,1,3.8,16,6,16
2016/12/10 7:46,3.7,1,3.8,16,6.3,16
2016/12/10 7:47,3.9,16,3.9,1,8.4,15
2016/12/10 7:48,3.7,16,3.9,1,6.5,16
2016/12/10 7:49,3.6,1,3.7,1,6.3,2
2016/12/10 7:50,3.5,16,3.6,1,4.9,16
2016/12/10 7:51,3.5,16,3.5,1,6.5,15
2016/12/10 7:52,3.6,16,3.6,1,8.1,16
2016/12/10 7:53,3.6,16,3.6,1,4.1,1
2016/12/10 7:54,3.7,16,3.7,16,6.7,16
2016/12/10 7:55,3.5,16,3.7,16,4.3,16
2016/12/10 7:56,3.4,16,3.5,16,5.1,16
2016/12/10 7:57,3.2,16,3.4,16,4.5,16
2016/12/10 7:58,3.2,16,3.2,16,4.8,15
2016/12/10 7:59,3.2,16,3.2,16,5.5,15
2016/12/10 8:00,3.3,16,3.3,16,6.3,16
2016/12/10 8:01,3.2,16,3.3,16,4.7,1
2016/12/10 8:02,3,16,3.1,16,4.7,1
2016/12/10 8:03,3,16,3.1,16,4.1,15
2016/12/10 8:04,2.7,16,3,16,2,2
2016/12/10 8:05,2.9,16,2.9,16,4.7,15
2016/12/10 8:06,2.7,16,2.9,16,3,16
2016/12/10 8:07,2.6,16,2.7,16,3.8,3
2016/12/10 8:08,2.6,16,2.6,16,5.2,2
2016/12/10 8:09,2.6,16,2.6,16,6.2,16
2016/12/10 8:10,2.4,1,2.5,16,4.2,1
2016/12/10 8:11,2.4,1,2.4,16,3.9,2
2016/12/10 8:12,2.4,1,2.5,16,7.1,15
2016/12/10 8:13,2.6,1,2.6,16,7.1,2
2016/12/10 8:14,2.8,1,2.8,16,5.2,2
2016/12/10 8:15,2.9,1,2.9,16,4.4,1
2016/12/10 8:16,3.1,1,3.1,1,5,2
2016/12/10 8:17,3.2,1,3.2,1,4.3,2
2016/12/10 8:18,3,1,3.2,1,2.9,1
2016/12/10 8:19,2.9,1,3,1,4.3,2
2016/12/10 8:20,2.9,1,2.9,1,5.2,15
2016/12/10 8:21,2.9,1,2.9,1,4.1,2
2016/12/10 8:22,2.9,1,2.9,1,7.2,1
2016/12/10 8:23,2.8,1,2.9,1,6.2,16
2016/12/10 8:24,2.8,1,2.8,1,7.2,15
2016/12/10 8:25,2.6,1,2.8,1,5.4,16
2016/12/10 8:26,2.5,1,2.6,1,3.6,16
2016/12/10 8:27,2.5,16,2.5,1,3.9,15
2016/12/10 8:28,2.4,1,2.5,1,2.7,2
2016/12/10 8:29,2.3,1,2.4,1,1.6,3
2016/12/10 8:30,2.1,16,2.2,1,2.7,16
2016/12/10 8:31,2.1,16,2.1,1,3.7,16
2016/12/10 8:32,2,16,2.1,1,4.2,15
2016/12/10 8:33,1.9,16,1.9,1,4.2,16
2016/12/10 8:34,1.8,16,1.9,1,3.3,1
2016/12/10 8:35,1.8,1,1.8,1,3.2,1
2016/12/10 8:36,1.7,1,1.8,1,2.4,2
2016/12/10 8:37,1.6,1,1.7,1,2.6,1
2016/12/10 8:38,1.6,1,1.6,1,2.6,3
2016/12/10 8:39,1.7,1,1.7,16,3.1,2
2016/12/10 8:40,1.7,1,1.7,16,2.4,16
2016/12/10 8:41,1.7,1,1.7,16,4.8,16
2016/12/10 8:42,1.7,1,1.7,16,6.7,16
2016/12/10 8:43,1.7,1,1.7,16,6.4,15
2016/12/10 8:44,1.9,1,1.9,1,5.5,16
2016/12/10 8:45,1.9,1,1.9,1,4.7,1
2016/12/10 8:46,2.2,1,2.2,1,5.6,1
2016/12/10 8:47,2.3,1,2.3,1,3.3,1
2016/12/10 8:48,2.3,1,2.3,1,2.5,2
2016/12/10 8:49,2.3,1,2.3,1,2.5,1
2016/12/10 8:50,2.4,1,2.4,1,3.5,1
2016/12/10 8:51,2.3,1,2.3,1,5.5,2
2016/12/10 8:52,2.3,1,2.3,1,5.8,1
2016/12/10 8:53,2.3,1,2.3,1,5.4,16
2016/12/10 8:54,2.1,1,2.3,1,4.3,2
2016/12/10 8:55,2,1,2.1,1,3.8,2
2016/12/10 8:56,1.8,1,2,1,3.3,16
2016/12/10 8:57,1.8,1,1.8,1,2.7,16
2016/12/10 8:58,2,1,2,1,7.5,16
2016/12/10 8:59,2.4,1,2.4,1,7.8,1
2016/12/10 9:00,2.7,16,2.7,16,7.5,1
2016/12/10 9:01,2.9,16,2.9,16,7.7,15
2016/12/10 9:02,3.1,16,3.1,16,7.9,16
2016/12/10 9:03,3.2,16,3.2,16,5.1,16
2016/12/10 9:04,3.2,16,3.2,16,3.7,15
2016/12/10 9:05,3.3,16,3.3,16,6.2,1
2016/12/10 9:06,3.5,16,3.5,16,6.1,2
2016/12/10 9:07,3.5,16,3.5,16,5.1,2
2016/12/10 9:08,3.5,16,3.5,16,5,16
2016/12/10 9:09,3.2,16,3.5,16,5.8,1
2016/12/10 9:10,3.1,16,3.2,16,4.9,16
2016/12/10 9:11,2.9,16,3,16,5.8,1
2016/12/10 9:12,2.8,16,2.9,16,8.4,15
2016/12/10 9:13,2.9,16,2.9,16,8.1,16
2016/12/10 9:14,3.1,16,3.1,16,7.9,1
2016/12/10 9:15,3.2,16,3.2,16,5,1
2016/12/10 9:16,3.1,16,3.2,16,6,1
2016/12/10 9:17,3.1,16,3.1,16,6.9,1
2016/12/10 9:18,3,1,3.1,16,3.7,13
2016/12/10 9:19,3,1,3,16,4.2,2
2016/12/10 9:20,3,1,3,16,4.7,16
2016/12/10 9:21,3.1,1,3.1,16,5.4,3
2016/12/10 9:22,3,1,3,16,5,16
2016/12/10 9:23,2.8,1,2.9,16,4.1,15
2016/12/10 9:24,2.6,1,2.8,16,3.7,1
2016/12/10 9:25,2.7,1,2.7,16,6.8,1
2016/12/10 9:26,2.7,1,2.8,16,8.2,1
2016/12/10 9:27,2.8,1,2.8,16,5.8,16
2016/12/10 9:28,3,1,3,1,6.7,2
2016/12/10 9:29,3.3,1,3.3,1,8.5,1
2016/12/10 9:30,3.6,1,3.6,1,9.1,2
2016/12/10 9:31,3.7,1,3.7,1,6.8,16
2016/12/10 9:32,3.7,1,3.7,1,6.7,15
2016/12/10 9:33,3.8,1,3.8,1,7.2,2
2016/12/10 9:34,3.9,1,3.9,1,6.7,2
2016/12/10 9:35,3.8,16,3.9,1,7,16
2016/12/10 9:36,3.9,16,3.9,1,7.2,2
2016/12/10 9:37,3.8,1,3.9,1,6.4,2
2016/12/10 9:38,3.8,16,3.9,1,6.5,2
2016/12/10 9:39,3.6,16,3.8,1,7.2,16
2016/12/10 9:40,3.5,16,3.6,1,7,1
2016/12/10 9:41,3.6,16,3.6,1,7.1,15
2016/12/10 9:42,3.7,16,3.7,1,8.6,2
2016/12/10 9:43,3.9,16,3.9,1,9.5,16
2016/12/10 9:44,3.9,16,3.9,1,6.1,16
2016/12/10 9:45,4.1,16,4.1,16,6.5,2
2016/12/10 9:46,4.2,16,4.2,16,8.6,15
2016/12/10 9:47,4.3,16,4.3,16,6.2,2
2016/12/10 9:48,4.4,1,4.4,16,6,1
2016/12/10 9:49,4.4,1,4.4,16,5.7,2
2016/12/10 9:50,4.4,1,4.4,16,8.1,1
2016/12/10 9:51,4.2,1,4.4,16,5.5,1
2016/12/10 9:52,4,1,4.2,16,6.7,2
2016/12/10 9:53,3.9,1,4.1,16,6.2,1
2016/12/10 9:54,3.7,1,3.9,16,6.2,16
2016/12/10 9:55,3.6,1,3.7,16,3.8,2
2016/12/10 9:56,3.4,1,3.5,16,7.9,1
2016/12/10 9:57,3.3,1,3.4,16,7.1,15
2016/12/10 9:58,3.4,1,3.4,1,8.6,1
2016/12/10 9:59,3.3,1,3.4,1,4.8,16
2016/12/10 10:00,3.3,1,3.4,1,6.8,1
2016/12/10 10:01,3.4,1,3.4,1,9.1,1
2016/12/10 10:02,3.5,1,3.5,1,6.1,2
2016/12/10 10:03,3.4,1,3.4,1,5.8,1
2016/12/10 10:04,3.4,1,3.4,1,3.7,2
2016/12/10 10:05,3.4,1,3.4,1,5,16
2016/12/10 10:06,3.4,1,3.5,1,5.6,16
2016/12/10 10:07,3.5,1,3.5,1,8.5,16
2016/12/10 10:08,3.3,1,3.5,1,6.1,15
2016/12/10 10:09,3.3,1,3.3,1,4.8,15
2016/12/10 10:10,3,1,3.2,1,3,16
2016/12/10 10:11,2.9,1,3,1,3.9,1
2016/12/10 10:12,2.8,16,2.8,1,5.6,16
2016/12/10 10:13,3,16,3,1,7.9,16
2016/12/10 10:14,3.1,16,3.1,1,5.8,15
2016/12/10 10:15,3.1,16,3.2,1,5.4,16
2016/12/10 10:16,3,16,3.1,1,4.8,2
2016/12/10 10:17,2.8,16,3,1,3.8,16
2016/12/10 10:18,2.8,16,2.8,1,5.5,15
2016/12/10 10:19,2.9,16,3,1,7,1
2016/12/10 10:20,3.1,16,3.1,16,5,2
2016/12/10 10:21,3.1,1,3.2,16,6.1,2
2016/12/10 10:22,3.1,1,3.1,16,5,16
2016/12/10 10:23,2.7,1,3.1,16,4.4,16
2016/12/10 10:24,2.7,1,2.8,16,6.3,1
2016/12/10 10:25,2.9,16,2.9,16,7.5,15
2016/12/10 10:26,3,16,3,16,6.4,14
2016/12/10 10:27,3.2,16,3.2,16,6.5,2
2016/12/10 10:28,3.3,16,3.3,16,6.2,1
2016/12/10 10:29,3.1,16,3.3,16,4.9,2
2016/12/10 10:30,3.1,16,3.1,16,7,2
2016/12/10 10:31,3.1,16,3.1,16,5.5,1
2016/12/10 10:32,3.1,1,3.1,16,5.1,2
2016/12/10 10:33,3.4,1,3.4,1,9.7,1
2016/12/10 10:34,3.6,1,3.6,1,8.2,16
2016/12/10 10:35,3.5,1,3.6,1,5.6,1
2016/12/10 10:36,3.6,1,3.6,1,7.4,15
2016/12/10 10:37,3.6,1,3.6,1,8.3,1
2016/12/10 10:38,3.6,1,3.6,1,9,16
2016/12/10 10:39,3.9,1,3.9,1,9.3,16
2016/12/10 10:40,4,1,4,1,8.6,16
2016/12/10 10:41,4,1,4,1,4.8,15
2016/12/10 10:42,4.2,1,4.2,1,8.3,1
2016/12/10 10:43,4.1,1,4.3,1,5.7,16
2016/12/10 10:44,4,1,4,1,8.1,2
2016/12/10 10:45,4.3,1,4.3,1,8.3,15
2016/12/10 10:46,4.3,1,4.4,16,7,15
2016/12/10 10:47,4.2,16,4.3,16,4.8,2
2016/12/10 10:48,4.3,16,4.3,16,8.7,1
2016/12/10 10:49,4.1,16,4.2,16,7.7,16
2016/12/10 10:50,4.1,16,4.1,16,8.3,15
2016/12/10 10:51,4.1,16,4.1,16,9.4,2
2016/12/10 10:52,3.8,16,4.1,16,4.4,16